User: anonymous   Login
Location: Unspecified
(0.0000°N, 0.0000°E)
Time: 23:24:06
(UTC+00:00)
Language:

STARLINK-35752 - Orbit

View from above orbital plane
View from above orbital plane
View from above satellite
View from above satellite

Ground track
Ground track

The orbit is defined by the following mean orbital elements,

1 66275U          26145.57447774 +.00000000 +00000-0 +39450-3 0 00006
2 66275  53.1578 194.4247 0001452  39.8435 320.2672 15.30208461    04
Epoch (UTC): 25 May 2026 13:47:14
Eccentricity: 0.0001452
inclination: 53.1578°
perigee height: 474 km
apogee height: 476 km
right ascension of ascending node: 194.4247°
argument of perigee: 39.8435°
revolutions per day: 15.30208461
mean anomaly at epoch: 320.2672°

The dashed part of the orbit path shows where the satellite is in the earth's shadow,  

DLR